Regional Weather Roundup
Issued by NWS Wakefield, VA

Home | Current Version | Previous Version | Text Only | Print | Product List | Glossary Off
Versions: 1 2 3 4 5 6 7 8 9 10 11 12 13 14 15 16 17 18 19 20 21 22 23 24 25 26 27

000
ASUS41 KAKQ 301315
RWRAKQ

REGIONAL WEATHER ROUNDUP
NATIONAL WEATHER SERVICE WAKEFIELD VA
900 AM EDT SUN APR 30 2017

Note: "fair" indicates few or no clouds below 12,000 feet with no
significant weather and/or obstructions to visibility. * = Denotes
station may not report precipitation (e.g., rain,snow,etc.),
thunder or fog.

VAZ042-051-052>054-056-301400-
NORTHERN VIRGINIA

CITY           SKY/WX    TMP DP  RH WIND       PRES   REMARKS
WASH NATIONAL  CLOUDY    74  69  85 NE5       30.12S
DULLES         CLOUDY    71  66  84 N3        30.13R
FORT BELVOIR   PTSUNNY  N/A N/A N/A S3          N/A
QUANTICO       SUNNY     73  71  93 S9        30.12S
FREDERICKSBRG* SUNNY     76  70  82 SW9       30.12S
STAFFORD*      SUNNY     76  72  87 SW7       30.16S
WARRENTON      PTSUNNY   76  68  74 W3        30.12S
CULPEPER*      MOSUNNY   76  71  85 S6        30.13S
MANASSAS*        N/A     71  66  84 N6        30.13R
LEESBURG*      CLOUDY    70  66  88 NE6       30.15R
WINCHESTER     CLOUDY    64  59  82 CALM      30.14R
FRONT ROYAL*   CLOUDY    68  63  83 NE3       30.13S
LURAY*         SUNNY     72  68  88 NE5       30.13R
$$

VAZ048-049-060>072-079>083-301400-
CENTRAL AND SOUTH CENTRAL VIRGINIA

CITY           SKY/WX    TMP DP  RH WIND       PRES   REMARKS
RICHMOND       MOSUNNY   75  69  81 SW17      30.15S
CHESTERFIELD*  FAIR     N/A N/A N/A SW9G17    30.17R
PETERSBURG*    PTSUNNY   74  66  76 SW8G17    30.18R
HANOVER        MOSUNNY   77  68  73 S10G20    30.15S
TAPPAHANNOCK*  SUNNY     76  73  90 SE9       30.14S
QUINTON*       CLOUDY    74  71  91 S7        30.15S
CHARLOTTSVILLE SUNNY     77  71  82 S8        30.13R
GORDONSVILLE*  CLOUDY    74  70  88 SW12      30.13R
ORANGE*        MOSUNNY   73  68  83 SW9       30.13R
LOUISA*        SUNNY     79  72  78 SW3       30.13R
BUMPASS*       PTSUNNY   74  71  89 SW7       30.14R
FARMVILLE*     CLOUDY    73  69  87 S12       30.16R
CREWE*         CLOUDY    73  73 100 SW7G22    30.18S
FORT PICKETT*  NOT AVBL
CHASE CITY*    CLOUDY    71  69  95 SW3       30.20R
CLARKSVILLE*   CLOUDY    72  70  94 SW7       30.20R
SOUTH HILL*    PTSUNNY   72  68  87 SW13      30.25R
LAWRENCEVILLE* PTSUNNY   74  68  81 SW10      30.19R
EMPORIA*       MOSUNNY   73  66  78 S10       30.20S
$$

VAZ088>098-301400-
SOUTHEAST VIRGINIA

CITY           SKY/WX    TMP DP  RH WIND       PRES   REMARKS
NORFOLK        CLOUDY    74  68  81 SW12      30.18R
VIRGINIA BEACH PTSUNNY   73  67  81 SW15      30.18S
NORFOLK NAVAL  PTSUNNY   75  68  78 SW12      30.20R
WEST POINT*    PTSUNNY   75  70  84 S9        30.18R
SALUDA*        CLOUDY    75  72  89 SW7       30.15S
NEWPORT NEWS   PTSUNNY   74  68  81 SW15      30.18R
LANGLEY AFB    PTSUNNY   74  69  83 SW14      30.18R
FORT EUSTIS    CLOUDY    76  68  77 SW10      30.16R
WILLIAMSBURG*  SUNNY     75  70  83 SW7       30.19R
HR EXEC AP*    CLOUDY    73  66  78 SW7       30.18R
FRANKLIN*      CLOUDY    73  66  80 SW12      30.20R
US460-WAKEFLD  MOSUNNY   74  68  81 SW6       30.19R
$$

VAZ020-022-025-037-045-301400-
WEST CENTRAL AND SOUTHWEST VIRGINIA

CITY           SKY/WX    TMP DP  RH WIND       PRES   REMARKS
STAUNTON*      SUNNY     73  66  80 S6        30.16F
WAYNESBORO*    SUNNY     74  68  80 S5        30.15F
HOT SPRINGS VA PTSUNNY   66  59  77 CALM      30.25F
LYNCHBURG      PTSUNNY   72  67  84 S10       30.16F
DANVILLE       PTSUNNY   71  68  90 S6        30.18F
SOUTH BOSTON*  FAIR      73  69  88 SW7       30.19S
MARTINSVILLE   CLOUDY    72  64  78 SW6       30.20F
ROANOKE        MOSUNNY   73  68  84 E5        30.16F
BLACKSBURG     SUNNY     72  64  75 S6        30.20F
DUBLIN*        PTSUNNY   73  61  64 S7        30.19S
MARION*        CLOUDY    73  63  71 CALM      30.18F
HILLSVILLE*    MOSUNNY   67  64  87 S8        30.19S
RICHLANDS*     FAIR      71  60  69 S12G17    30.13F
WISE*          PTSUNNY   70  59  68 S9G18     30.11S
ABINGDON*      SUNNY     75  64  70 CALM      30.11F
$$

MDZ021>025-VAZ099-100-301400-
SOUTHERN MARYLAND AND THE DELMARVA PENINSULA

CITY           SKY/WX    TMP DP  RH WIND       PRES   REMARKS
PATUXENT RIVER PTSUNNY   78  74  87 SW7       30.13R
BAY BRIDGE APT CLOUDY    72  64  78 E9        30.14R
LEONARDTOWN    MOSUNNY   75  70  83 SW9       30.14S
DOVER          CLOUDY    66  65  99 E9        30.18R
GEORGETOWN     CLOUDY    70  61  73 E6        30.17R
EASTON         PTSUNNY   73  64  73 E8        30.18R
CAMBRIDGE      MOSUNNY   77  72  83 VRB7      30.14R
SALISBURY      CLOUDY    75  72  90 VRB3      30.15S
OCEAN CITY     CLOUDY    66  65  96 VRB3      30.17R FOG
WALLOPS ISLAND MOSUNNY   77  73  87 W9        30.16R
ACCOMACK*      MOSUNNY   76  71  83 SW6       30.16R
$$

NCZ012>017-030>032-301400-
NORTH CENTRAL AND EASTERN NORTH CAROLINA

CITY           SKY/WX    TMP DP  RH WIND       PRES   REMARKS
ROANOKE RAPIDS PTSUNNY   73  68  83 S13       30.20R
RALEIGH        PTSUNNY   74  67  78 SW13      30.21R
ELIZABETH CITY LGT RAIN  75  69  81 SW15      30.21R
AHOSKIE*         N/A     73  68  84 S7        30.20S
EDENTON*       CLOUDY    77  69  76 W8        30.23R
CURRITUCK*     PTSUNNY   74  68  83 SW10      30.21S
KILL DEVIL HLS MOSUNNY   75  67  74 SW7       30.20S
MANTEO         CLOUDY    75  68  78 SW15      30.21F
CAPE HATTERAS  MOSUNNY   75  70  84 SW7       30.24R HAZE
TARBORO*       NOT AVBL
GOLDSBORO      MOSUNNY   76  73  90 S10       30.21S
WASHINGTON     PTSUNNY   74  68  81 W9G17     30.23R
GREENVILLE     MOSUNNY   77  70  78 SW12      30.23S
NEW BERN       PTSUNNY   74  72  93 SW7       30.24R
WILMINGTON     MOSUNNY   76  72  87 S10       30.22R
$$

VAZ048-301400-
ELSEWHERE

CITY           SKY/WX    TMP DP  RH WIND       PRES   REMARKS
HARRISBURG PA  CLOUDY    64  53  67 E12G20    30.16F
BALTIMORE      CLOUDY    70  63  78 E10       30.14R
ANNAPOLIS      CLOUDY    71  68  90 E5        30.13R
ANDREWS AFB    CLOUDY    74  71  89 CALM      30.12S
PHILADELPHIA   CLOUDY    65  49  56 E7        30.21R
HENDERSON NC   PTSUNNY   69  64  84 SW18G24   30.21R
GREENSBORO     CLOUDY    71  66  84 SW10      30.18F
ROCKY MOUNT    PTSUNNY   75  69  81 SW10      30.21S
$$

VAZ100-301400-
MARINE

STATION/POSITION TIME  TEMP    WIND        PRES    WAVE   SWELL
                       AIR SEA DIR/SP/G            HT/PER HT/PER
                 (UTC) (F)     (DEG/KT/KT) (MB)    (FT/S) (FT/S)
CAPE MAY NJ      1248   67 60   90/ 11/ 15 1021.0R
LEWES DE         1248   63 61  110/  9/ 11 1021.6R
15NM E FENWICK I 1150   59 58   70/  4/  6 1021.4    3/ 6   3/ 6
OCEAN-CITY-INLET 1248   62 64  170/  1/  2 1021.8R
WACHAPREAGUE VA  1248   76 74  220/  8/ 12 1020.7R
THOMAS POINT MD  1200   69 60   90/ 10/ 11   N/A
GOOSES REEF MD   1250   69     200/  8/ 10 1020.8R
COVE POINT MD    1248   75     230/  7/ 11 1020.9R
SOLOMONS ISLAND  1236   75 62  240/  6/  7   N/A
BISHOPS HEAD MD  1248   72 70  200/ 12/ 14 1021.0R
PINEY POINT MD   1248          200/  2/  3   N/A
POTOMAC MD       1250   69     210/  4/  6 1019.8R
CAMBRIDGE MD     1242   75 67                N/A
LEWISETTA VA     1248   76 70  210/  5/  7 1020.2R
RAPPAHANNOCK LGT 1248          200/ 14/ 15 1021.8R
STINGRAY PT      1250   71     240/  8/ 10 1021.2R
YORK RVR RNG VA  1248   72     220/ 14/ 16 1021.0R
YORKTOWN VA      1248   74 68  210/ 11/ 19 1021.2R
JAMESTOWN VA     1250   73     220/ 10/ 16   N/A
DOMINION TERM VA 1248   72     230/  8/ 12 1022.4R
KIPTOPEKE VA     1248      66  200/  9/ 11   N/A
CHES BAY BRIDGE  1248   71 65  250/ 17/ 20 1022.0R
CAPE HENRY VA    1248   72     210/  9/ 13   N/A
WILLOUBY STN VA  1248   72     220/ 14/ 15 1023.1R
S CRANEY ISL VA  1248   73     220/  7/ 13 1022.3R
CAPE HENRY BUOY  1242      64                N/A     2/ 6
1ST LANDING BUOY 1250   70                 1022.3R
CAPE CHARLES BUO 1251      58                N/A     2/ 7
64NM E OF VA BCH 1250   63 57  220/ 12/ 14 1022.9F   3/ 5   2/ 6
DUCK PIER NC     1248   73 56  220/ 13/ 17 1022.4S
44100 DUCK FRF   1205      61                N/A     2/ 5
44056 DUCK FRF   1230      59                N/A     2/ 7
OREGON INLET NC  1248          220/ 12/ 15   N/A
HATTERAS NC      1248   75 72  230/  7/ 11 1023.7R
DIAMOND SHLS NC  1250   76 74  220/ 14/ 16 1023.8R   3/ 4   2/ 7
CAPE LOOKOUT NC  1200   74     210/ 10/ 12 1023.0R
$$




USA.gov is the U.S. government's official web portal to all federal, state and local government web resources and services.